SL-16 DEB, 22379

Orbit data source: Space-Track

SL-16 DEB, 22379 is space debris in LEO originally from a launch on Fri, 25 Dec 1992 UTC launched from the Tyuratam Missile And Space Complex (TTMTR). Debris objects in space refer to the collection of defunct objects orbiting the Earth. Examples of debris include non-operational satellites, rocket bodies, and fragments generated from explosions, collisions, or faulty payload assembly.

Loading next visibility...
Identifier
22379, 1992-093BU
Orbit
LEO
Country
Flag of CISCIS
Related business
Manufacturer
Unknown
Mission
Spacecraft
Bus & Motor
Unknown
Mass
Unknown
Launch date (UTC)
1992-12-25 (33 years ago)
Launch vehicle
Unknown
Launch site
Tyuratam Missile And Space Complex (TTMTR)
Object type
Payload
Rocket body
Debris
Shape & HBR
Unknown shape, 0.2 m
Radar Cross Section
Small (<0.1 m²)

Expand to show TLE details & history
Last TLE update: 6 hours ago

TLE from 6 hours ago
0 SL-16 DEB
1 22379U 92093BU  26133.16578979  .00000366  00000-0  22164-3 0  9996
2 22379  70.7055  40.7728 0085377 191.2098 168.7122 14.11382478705274
Epoch: 2026-05-13T03:58Z
TLE epoch observation values (Epoch: 2026-05-13T03:58:44.237Z)
Latitude
-0.00005°
Longitude
110.15874°
Altitude
917.607 km
Speed
7.362 km/s
True Right ascension
02h 43m 05s
True Declination
0° 00' 00"
Sunlit
Object was in daylight at epoch
Visualization orbit readout
Latitude
Unknown
Longitude
Unknown
Altitude
Unknown
Speed
Unknown
Apparent Right ascension
Unknown
Apparent Declination
Unknown
Sunlit
N/A
Visualization observer readout
Local Sidereal Time
18:40:50
Azimuth
Unknown
Elevation
Unknown
Doppler factor
Unknown
Orbital elements
Apogee altitude
914.336 km
Perigee altitude
790.868 km
Semi-major axis
7,230.739 km
Eccentricity
0.00854
Inclination
70.7055°
RAAN
40.7728°
Arg. of periapsis
191.2098°
True anomaly
168.90171°
Mean anomaly
168.7122°
Eccentric anomaly
168.80715°
Mean motion
3.52995 °/min
Orbital period
101.98 mins
BSTAR
0.00022164
Loading maneuver chart data...
Computing Atmospheric mass density...
Loading historical data...
Loading historical data...
Loading historical data...
Loading historical data...
Loading historical data...
Loading historical data...
Loading historical data...

Documentation

Showing up to 5 results
|